KTXEAGLE7 Weather Reports


time (UTC)temp
C
wind
direction
speed
KPH
gust
KPH
rain 1hr
cm
rain 24hr
cm
rain mn
cm
humidity
%
barometer
mb
20260903120101 26 156 4.8 12.9 0.00 0.00 0.00 96 1014.0
20260903114552 26 145 4.8 12.9 0.00 0.00 0.00 96 1014.0
20260903113130 26 143 3.2 8.0 0.00 0.00 0.00 96 1014.0
20260903111552 26 144 3.2 6.4 0.00 0.00 0.00 96 1014.0
20260903110056 26 144 1.6 4.8 0.00 0.00 0.00 96 1014.1
20260903104601 26 160 1.6 4.8 0.00 0.00 0.00 96 1014.0
20260903103049 26 153 1.6 4.8 0.00 0.00 0.00 96 1014.0
20260903101550 26 167 0.0 4.8 0.00 0.00 0.00 96 1013.8
20260903100048 26 179 1.6 6.4 0.00 0.00 0.00 96 1013.6
20260903094552 26 169 0.0 4.8 0.00 0.00 0.00 96 1013.6
20260903093046 26 175 3.2 8.0 0.00 0.00 0.00 96 1013.6
20260903091550 26 169 1.6 8.0 0.00 0.00 0.00 96 1013.7
20260903090047 26 170 3.2 9.7 0.00 0.00 0.00 96 1013.6
20260903084543 26 163 4.8 8.0 0.00 0.00 0.00 96 1013.8
20260903083042 26 161 3.2 8.0 0.00 0.00 0.00 96 1013.9
20260903081541 26 150 3.2 9.7 0.00 0.00 0.00 95 1013.8
20260903080039 26 134 8.0 14.5 0.00 0.00 0.00 95 1013.7
20260903074541 26 148 6.4 12.9 0.00 0.00 0.00 95 1013.7
20260903073037 26 136 6.4 14.5 0.00 0.00 0.00 94 1013.7
20260903071545 26 147 8.0 14.5 0.00 0.00 0.00 94 1013.7
20260903070034 27 109 6.4 11.3 0.00 0.00 0.00 94 1014.1
20260903064532 27 129 4.8 11.3 0.00 0.00 0.00 93 1014.1
20260903063031 27 139 8.0 14.5 0.00 0.00 0.00 93 1014.0
20260903061528 27 121 6.4 11.3 0.00 0.00 0.00 92 1014.1
20260903060026 27 126 4.8 9.7 0.00 0.00 0.00 91 1014.4
20260903054524 27 88 6.4 11.3 0.00 0.00 0.00 91 1014.6
20260903053023 27 84 4.8 9.7 0.00 0.00 0.00 90 1014.7
20260903051539 27 84 4.8 8.0 0.00 0.00 0.00 90 1014.8
20260903050016 27 82 4.8 6.4 0.00 0.00 0.00 89 1014.9
20260903044519 27 337 1.6 4.8 0.00 0.00 0.00 89 1015.5
20260903043035 27 328 0.0 6.4 0.00 0.00 0.00 89 1015.4
20260903041520 27 45 0.0 8.0 0.00 0.00 0.00 89 1015.3
20260903040017 27 137 0.0 12.9 0.00 0.00 0.00 88 1014.8
20260903034523 27 154 6.4 14.5 0.00 0.00 0.00 88 1014.2
20260903033018 27 155 6.4 12.9 0.00 0.00 0.00 88 1014.2
20260903031515 27 134 8.0 19.3 0.00 0.00 0.00 88 1014.3
20260903030013 28 162 6.4 17.7 0.00 0.00 0.00 87 1014.0
20260903024513 28 147 9.7 24.1 0.00 0.00 0.00 86 1013.4
20260903023012 28 163 11.3 24.1 0.00 0.00 0.00 84 1013.2
20260903021514 28 168 14.5 27.4 0.00 0.00 0.00 83 1012.9
20260903020013 28 171 12.9 22.5 0.00 0.00 0.00 82 1012.7
20260903014517 29 161 11.3 19.3 0.00 0.00 0.00 79 1012.6
20260903013010 30 165 14.5 27.4 0.00 0.00 0.00 77 1012.5
20260903011514 30 171 9.7 24.1 0.00 0.00 0.00 73 1012.5
20260903010009 30 163 12.9 20.9 0.00 0.00 0.00 68 1012.2
20260903004509 31 177 14.5 27.4 0.00 0.00 0.00 64 1012.1
20260903003011 31 172 14.5 32.2 0.00 0.00 0.00 63 1011.9
20260903001509 31 171 16.1 30.6 0.00 0.00 0.00 64 1011.7
20260903000110 32 176 20.9 33.8 0.00 0.00 0.00 65 1011.5
20260902234505 32 173 17.7 25.7 0.00 0.00 0.00 66 1011.6
20260902233005 32 171 22.5 32.2 0.00 0.00 0.00 67 1011.5
20260902231504 32 180 22.5 33.8 0.00 0.00 0.00 67 1011.5
20260902230002 33 188 17.7 32.2 0.00 0.00 0.00 67 1011.4
20260902224503 34 142 19.3 33.8 0.00 0.00 0.00 62 1011.2
20260902223004 35 161 8.0 16.1 0.00 0.00 0.00 56 1011.4
20260902221605 35 173 11.3 19.3 0.00 0.00 0.00 56 1011.2
20260902220059 35 176 9.7 16.1 0.00 0.00 0.00 57 1011.2
20260902214601 35 153 6.4 12.9 0.00 0.00 0.00 53 1011.4
20260902213102 35 189 8.0 16.1 0.00 0.00 0.00 55 1011.6
20260902211557 35 160 9.7 16.1 0.00 0.00 0.00 50 1011.6
20260902210052 35 196 8.0 16.1 0.00 0.00 0.00 54 1011.7
20260902204550 35 145 11.3 19.3 0.00 0.00 0.00 54 1011.9
20260902203048 35 166 9.7 24.1 0.00 0.00 0.00 54 1012.0
20260902201601 35 217 9.7 20.9 0.00 0.00 0.00 52 1012.3
20260902200057 35 175 12.9 24.1 0.00 0.00 0.00 53 1012.6
20260902194539 35 194 14.5 20.9 0.00 0.00 0.00 53 1013.0
20260902193035 35 180 12.9 22.5 0.00 0.00 0.00 58 1013.3
20260902191536 34 206 9.7 16.1 0.00 0.00 0.00 60 1013.5
20260902190046 34 159 9.7 19.3 0.00 0.00 0.00 56 1013.6
20260902184531 33 240 12.9 17.7 0.00 0.00 0.00 57 1014.0
20260902183026 33 182 11.3 20.9 0.00 0.00 0.00 60 1014.2
20260902181525 33 216 12.9 24.1 0.00 0.00 0.00 63 1014.4
20260902180020 32 215 11.3 22.5 0.00 0.00 0.00 65 1014.7
20260902174518 32 229 14.5 22.5 0.00 0.00 0.00 65 1015.1
20260902173015 32 224 12.9 27.4 0.00 0.00 0.00 70 1015.3
20260902171514 31 221 14.5 25.7 0.00 0.00 0.00 73 1015.6
20260902170011 31 261 11.3 25.7 0.00 0.00 0.00 72 1015.8
20260902164515 31 201 19.3 27.4 0.00 0.00 0.00 74 1016.1
20260902163010 31 196 17.7 27.4 0.00 0.00 0.00 76 1016.1
20260902161508 30 218 17.7 30.6 0.00 0.00 0.00 79 1016.0
20260902160002 30 239 16.1 25.7 0.00 0.00 0.00 81 1016.2
20260902154605 29 223 17.7 24.1 0.00 0.00 0.00 83 1016.1
20260902153059 29 205 14.5 27.4 0.00 0.00 0.00 84 1016.1
20260902151557 28 225 16.1 24.1 0.00 0.00 0.00 87 1016.0
20260902150052 28 223 17.7 24.1 0.00 0.00 0.00 88 1016.1
20260902144549 27 232 12.9 22.5 0.00 0.00 0.00 90 1016.0
20260902143047 27 240 12.9 19.3 0.00 0.00 0.00 92 1016.1
20260902141545 27 257 9.7 17.7 0.00 0.00 0.00 93 1016.0
20260902140047 26 263 6.4 14.5 0.00 0.00 0.00 95 1016.1
20260902134543 26 257 6.4 12.9 0.00 0.00 0.00 96 1016.1
20260902133045 26 235 6.4 16.1 0.00 0.00 0.00 97 1015.9
20260902131539 25 247 9.7 14.5 0.00 0.00 0.00 97 1015.7
20260902130040 25 219 6.4 16.1 0.00 0.00 0.00 98 1015.3
20260902124534 25 231 9.7 14.5 0.00 0.00 0.00 98 1014.9
20260902123035 25 237 9.7 16.1 0.00 0.00 0.00 98 1014.8
20260902121533 25 246 8.0 12.9 0.00 0.00 0.00 98 1014.7